Laramie, WY

8:02 AM MST on February 26, 2017 (GMT -0700)
Laramie Regional

Weather History for KLAR - February, 2012

Change the Weather History Date:

Wednesday, February 22, 2012

  Actual Average Record
Temperature  
Mean Temperature 35 °F 25 °F  
Max Temperature 39 °F 37 °F 61 °F (1958)
Min Temperature 30 °F 13 °F -15 °F (2010)
Degree Days  
Heating Degree Days 30 40  
Month to date heating degree days 1003 925  
Since 1 July heating degree days 5863 5940  
Cooling Degree Days 0 0  
Month to date cooling degree days 0 0  
Year to date cooling degree days 0 0  
Moisture  
Dew Point 28 °F    
Average Humidity 76    
Maximum Humidity 92    
Minimum Humidity 59    
Precipitation  
Precipitation T in 0.02 in 0.17 in (1964)
Month to date precipitation 0.27 0.26  
Year to date precipitation 0.43 0.53  
Sea Level Pressure  
Sea Level Pressure 29.61 in    
Wind  
Wind Speed 42 mph (West)    
Max Wind Speed 62 mph    
Max Gust Speed 76 mph    
Visibility 5 miles    
Events Rain , Snow    
T = Trace of Precipitation, MM = Missing Value Source: NWS Daily Summary

Daily Weather History Graph

Daily Weather History Graph

Search for Another Location

Airport or City:

Trip Planner

Search our weather history database for the weather conditions in past years. The results will help you decide how hot, cold, wet, or windy it might be!

Date:

Astronomy

Feb. 22, 2012 Rise Set
Actual Time 6:48 AM MST 5:44 PM MST
Civil Twilight 6:20 AM MST 6:12 PM MST
Nautical Twilight 5:48 AM MST 6:44 PM MST
Astronomical Twilight 5:16 AM MST 7:16 PM MST
Moon 6:46 AM MST (2/22) 6:55 PM MST (2/22)
Length of Visible Light 11h 52m
Length of Day
10h 56m
New Moon, 1% of the Moon is Illuminated
Feb 22
New Moon
Feb 29
First Quarter
Mar 8
Full
Mar 14
Last Quarter
Mar 22
New

Hourly Weather History & Observations

Time (MST) Temp. Windchill Dew Point Humidity Pressure Visibility Wind Dir Wind Speed Gust Speed Precip Events Conditions
12:04 AM 30.2 °F 13.9 °F 26.6 °F 86% 29.72 in 2.0 mi West 36.8 mph 47.2 mph 0.00 in   Overcast
12:45 AM 30.2 °F 14.9 °F 26.6 °F 86% 29.74 in 5.0 mi West 31.1 mph 40.3 mph 0.00 in   Partly Cloudy
12:53 AM 30.0 °F 14.7 °F 26.1 °F 85% 29.74 in 7.0 mi West 31.1 mph 39.1 mph 0.00 in   Clear
1:30 AM 30.2 °F 13.7 °F 26.6 °F 86% 29.73 in 2.5 mi West 38.0 mph 52.9 mph 0.00 in   Clear
1:42 AM 30.2 °F 13.1 °F 26.6 °F 86% 29.71 in 1.2 mi West 41.4 mph 52.9 mph 0.00 in   Clear
1:53 AM 30.0 °F 12.8 °F 28.0 °F 92% 29.70 in 1.2 mi West 41.4 mph 57.5 mph 0.00 in   Clear
2:53 AM 30.9 °F 14.3 °F 28.0 °F 89% 29.70 in 1.2 mi West 40.3 mph 51.8 mph 0.00 in   Clear
3:53 AM 30.9 °F 14.3 °F 28.0 °F 89% 29.68 in 1.5 mi West 40.3 mph 50.6 mph 0.00 in   Partly Cloudy
4:03 AM 32.0 °F 16.2 °F 28.4 °F 87% 29.70 in 2.5 mi West 38.0 mph 47.2 mph 0.00 in   Partly Cloudy
4:14 AM 32.0 °F 17.0 °F 28.4 °F 87% 29.71 in 5.0 mi West 33.4 mph 43.7 mph 0.00 in   Clear
4:53 AM 32.0 °F 16.5 °F 28.4 °F 87% 29.72 in 4.0 mi West 35.7 mph 47.2 mph N/A   Clear
5:30 AM 30.2 °F 13.7 °F 28.4 °F 93% 29.69 in 2.0 mi West 38.0 mph 52.9 mph N/A   Mostly Cloudy
5:53 AM 30.9 °F 14.9 °F 28.0 °F 89% 29.70 in 2.0 mi West 36.8 mph 49.5 mph 0.00 in   Partly Cloudy
6:24 AM 30.2 °F 14.3 °F 28.4 °F 93% 29.70 in 4.0 mi West 34.5 mph 43.7 mph 0.00 in   Partly Cloudy
6:53 AM 32.0 °F 16.7 °F 27.0 °F 82% 29.69 in 5.0 mi West 34.5 mph 42.6 mph 0.00 in   Mostly Cloudy
7:12 AM 32.0 °F 16.0 °F 28.4 °F 87% 29.69 in 1.8 mi West 39.1 mph 48.3 mph 0.00 in   Partly Cloudy
7:53 AM 32.0 °F 16.7 °F 28.0 °F 85% 29.69 in 2.0 mi West 34.5 mph 46.0 mph 0.00 in   Partly Cloudy
8:14 AM 33.8 °F 18.5 °F 28.4 °F 81% 29.69 in 3.0 mi West 39.1 mph 46.0 mph N/A   Clear
8:18 AM 33.8 °F 18.1 °F 28.4 °F 81% 29.69 in 1.8 mi West 41.4 mph 51.8 mph 0.00 in Rain Light Rain
8:32 AM 33.8 °F 19.2 °F 28.4 °F 81% 29.68 in 3.0 mi West 34.5 mph 46.0 mph 0.00 in Rain Light Rain
8:51 AM 33.8 °F 18.5 °F 28.4 °F 81% 29.68 in 2.5 mi West 39.1 mph 51.8 mph 0.00 in Rain Light Rain
8:53 AM 33.1 °F 16.9 °F 28.9 °F 85% 29.67 in 2.0 mi West 42.6 mph 51.8 mph 0.00 in Rain Light Rain
9:01 AM 33.8 °F 18.6 °F 28.4 °F 81% 29.69 in 1.8 mi West 38.0 mph 52.9 mph 0.00 in Rain Light Rain
9:10 AM 33.8 °F 17.8 °F 28.4 °F 81% 29.70 in 2.0 mi West 43.7 mph 52.9 mph 0.00 in Rain Light Rain
9:36 AM 33.8 °F 17.6 °F 32.0 °F 93% 29.68 in 3.0 mi West 44.9 mph 56.4 mph 0.00 in Rain Light Rain
9:53 AM 35.1 °F 20.0 °F 33.1 °F 92% 29.67 in 4.0 mi West 40.3 mph 57.5 mph 0.00 in Rain Light Rain
10:53 AM 36.0 °F 21.1 °F 34.0 °F 93% 29.65 in 10.0 mi West 41.4 mph 54.1 mph 0.00 in   Scattered Clouds
11:53 AM 37.0 °F 23.0 °F 28.9 °F 73% 29.60 in 10.0 mi West 39.1 mph 57.5 mph N/A   Clear
12:53 PM 37.9 °F 24.4 °F 28.0 °F 68% 29.56 in 10.0 mi West 38.0 mph 52.9 mph N/A   Clear
1:53 PM 37.9 °F 23.9 °F 27.0 °F 65% 29.56 in 10.0 mi West 41.4 mph 59.8 mph N/A   Mostly Cloudy
2:53 PM 37.9 °F 22.5 °F 27.0 °F 65% 29.50 in 10.0 mi West 52.9 mph 67.9 mph N/A   Scattered Clouds
3:53 PM 37.9 °F 23.4 °F 27.0 °F 65% 29.48 in 10.0 mi West 44.9 mph 52.9 mph N/A   Clear
4:53 PM 37.9 °F 23.9 °F 28.0 °F 68% 29.43 in 10.0 mi West 41.4 mph 48.3 mph N/A   Clear
5:53 PM 37.0 °F 22.5 °F 28.0 °F 70% 29.43 in 10.0 mi West 42.6 mph 54.1 mph 0.00 in   Partly Cloudy
6:53 PM 37.9 °F 23.7 °F 25.0 °F 60% 29.44 in 10.0 mi West 42.6 mph 61.0 mph 0.00 in   Mostly Cloudy
7:53 PM 37.9 °F 23.0 °F 24.1 °F 57% 29.39 in 10.0 mi West 48.3 mph 70.2 mph N/A   Overcast
8:53 PM 37.9 °F 22.1 °F 24.1 °F 57% 29.35 in 10.0 mi West 56.4 mph 73.6 mph 0.00 in   Mostly Cloudy
9:53 PM 37.0 °F 22.3 °F 25.0 °F 62% 29.35 in 10.0 mi West 43.7 mph 65.6 mph 0.00 in   Overcast
10:53 PM 36.0 °F 20.4 °F 25.0 °F 64% 29.34 in 10.0 mi West 47.2 mph 59.8 mph 0.00 in   Overcast
11:24 PM 33.8 °F 18.1 °F 28.4 °F 81% 29.43 in 1.8 mi WNW 41.4 mph 58.7 mph 0.00 in Snow Light Snow
11:34 PM 33.8 °F 18.6 °F 28.4 °F 81% 29.43 in 1.0 mi WNW 38.0 mph 50.6 mph 0.00 in Snow Light Snow
11:53 PM 32.0 °F 15.2 °F 28.9 °F 88% 29.36 in 1.0 mi WNW 43.7 mph 50.6 mph 0.00 in Snow Light Snow